Location: Northcutt
(34.7304°N, 84.4305°W)
Time: 04:37:30
(UTC+00:00)

Vanguard 2 - Pass Details

Date: 07 October 2022
Orbit: 553 x 2933 km, 32.9° (Epoch: 05 December)

Event Time Altitude Azimuth Distance (km) Brightness Sun altitude
Rises 20:04:16 0° 273° (W) 4,867 12.2 34.9°
Reaches altitude 10° 20:07:00 10° 273° (W) 4,145 12.0 34.5°
Maximum altitude 20:19:08 81° 188° (S) 2,493 10.8 32.5°
Drops below altitude 10° 20:36:46 10° 105° (ESE) 5,752 11.7 29.5°
Sets 20:41:20 0° 104° (ESE) 6,774 12.0 28.7°
